Погода в Серафимовиче

Погода в Серафимовиче : погода сейчас, прогноз погоды и архив. Всё, что Вы хотите узнать о погоде в Серафимовиче!

Поиск расширенной информации на нашем сайте:

Другие новости

Новости СМИ2

Главная страница сайта

Новости сайта

02.10.2013

Напоминаем, что на нашем новом сайте вы можете получить высокодетализированные прогнозы погоды по пунктам России, СНГ и мира (включающие важные для авиации метеовеличины, такие как направление и скорость ветра, видимость, явления погоды, количество и форма облачности, нижняя и верхняя граница облачности), а также ознакомиться с разнообразными материалами по авиационной метеорологии и подборкой полезных ссылок на эту тему.

Сайт Метеоцентр.Азия посвящён разработке технологий оптимизации авиаметеорологического обслуживания, включая проектирование и перспективное создание нескольких автоматизированных авиаметеорологических систем:
- система выпуска высокодетальных прогностических карт явлений погоды для нижнего воздушного пространства по России и ближнему зарубежью;
- система верификации прогнозов TAF (выпускаемых синоптиками официальных АМСГ РФ и ближнего зарубежья) и AUTOTAF (выпускаемых сайтом Метеоцентр.Азия) - выявление ошибок, онлайн-сопоставление с фактической погодой METAR, автоматическое внесение коррективов в прогнозы при резком отклонении фактической погоды от прогноза, подсчёт оправдываемости прогнозов по элементам и в целом;
- система обработки, анализа и отображения авиаметеорологической информации для применения провайдерами метеорологической информации.

Рекомендуем: Работаем с овощами и салатами. Для ускорения работы используйте яйцерезку, это удобно.

Погода в Серафимовиче - сегодня

Время (UTC), дата Ветер
(°,м/с) 
Видим.   Явления Облачность Т
(°С)
Тd
(°С)
f(%) Тe
(°С)
Pmin
(гПа)
dP
(гПа)
Po
(мм)
O2
(г/м3)
Тmin Tmax R s Состояние
почвы
09 25.06.17 230 (ЮЗ) 20000 м    8/6 600 м кучево-дожд., средняя 
[Cb calv|Ac trans]
+23.7 +9.4 40 +24  1011.5  0.1  748  276           
12 25.06.17 230 (ЮЗ) 20000 м    8/5 600 м кучево-дожд., средняя 
[Cb calv|Ac trans]
+24.3 +8.1 36 +24  1011.3  -0.3  748  275           
15 25.06.17 220 (ЮЗ) 20000 м    9/8 600 м кучево-дожд., средняя 
[Cb calv|Ac trans]
+23.1 +10.6 45 +25  1011.8  0.5  748  276    +25       
18 25.06.17 210 (ЮЗ) 20000 м    10/5 600 м кучево-дожд., средняя 
[Cb calv|Ac und]
+20 +11.8 59 +24  1013.1  1.2  749  279           
21 25.06.17 200 (Ю) 20000 м    9/3 600 м кучево-дожд., средняя 
[Cb calv|Ac trans]
+19.2 +13.5 70 +26  1013  0.1  749  279           
00 26.06.17 220 (ЮЗ) 20000 м    3/0 средняя 
[Ac trans]
+17.8 +14.4 80 +27  1013.2  0.1  749  280           
03 26.06.17 250 (З) 20000 м    3/0 верхняя 
[Ci fib]
+18.7 +14.7 78 +28  1014.3  1.1  750  280  +17.3        сухая 
06 26.06.17 270 (З) 20000 м    9/3 300 м верхняя 
[Cu med, cong|Ci]
+23.5 +15 59 +32  1014.2  0.2  750  275           
09 26.06.17 290 (З) 20000 м    9/1 300 м верхняя 
[Cu hum|Ci]
+26.8 +14.2 46 +34  1013.9  -0.2  750  272           
12 26.06.17 300 (СЗ) 20000 м    8/3 300 м верхняя 
[Cu med, cong|Ci fib]
+29.1 +11.7 34 +33  1013.1  -0.7  749  271           
15 26.06.17 260 (З) 20000 м    8/0 средняя, верхняя 
[Ac trans|Ci sp]
+28.6 +13.3 39 +35  1012.6  -0.5  749  271    +29.5       
18 26.06.17 190 (Ю) 20000 м    ясно 
+24.2 +12.6 48 +29  1012.4  -0.4  749  275           
21 26.06.17 190 (Ю) 20000 м    ясно 
+23.5 +12.3 49 +28  1012.5  0.1  749  275           
00 27.06.17 230 (ЮЗ) 20000 м    ясно 
+22.6 +13 55 +28  1012.2  -0.3  748  276           
03 27.06.17 200 (Ю) 20000 м    ясно 
+22.7 +14.1 58 +30  1012.4  0.2  749  276  +21.2        сухая 
06 27.06.17 220 (ЮЗ) 20000 м    8/0 верхняя 
[Ci fib]
+27.2 +15.5 49 +37  1012  -0.2  748  271           
09 27.06.17 220 (ЮЗ) 20000 м    8/4 600 м верхняя 
[Cu hum|Ci fib]
+30.2 +13.8 37 +37  1011.7  -0.2  748  269           
12 27.06.17 230 (ЮЗ) 20000 м    8/6 600 м верхняя 
[Cu hum|Ci fib]
+31.4 +12.2 31 +36  1010.4  -1.2  747  268           
15 27.06.17 220 (ЮЗ) 20000 м    8/4 600 м верхняя 
[Cu hum|Ci fib]
+31.1 +12.3 32 +36  1009.6  -0.8  747  268    +31.8       
18 27.06.17 190 (Ю) 20000 м    3/0 верхняя 
[Ci sp]
+26.5 +14 46 +34  1010.5  0.7  747  272           
21 27.06.17 190 (Ю) 20000 м    ясно 
+24.7 +11.6 44 +28  1010.2  -0.4  747  274           
00 28.06.17 240 (ЮЗ) 20000 м    ясно 
+21.9 +12.9 57 +27  1010.8  0.4  747  276           
03 28.06.17 010 (С) 20000 м    8/0 верхняя 
[Ci sp]
+20.6 +15.7 73 +31  1011.7  0.9  748  277  +19.6        сухая 
06 28.06.17 070 (В) 20000 м    8/0 верхняя 
[Cc]
+27.3 +17.4 55 +41  1011.1  -0.3  748  270           
09 28.06.17 010 (С) 20000 м    8/4 600 м кучево-дожд., средняя 
[Cb calv|Ac trans]
+30.7 +17.2 44 +44  1010.9  748  267           
Время (UTC), дата Ветер
(°,м/с) 
Видим.   Явления Облачность Т
(°С)
Тd
(°С)
f(%) Тe
(°С)
Pmin
(гПа)
dP
(гПа)
Po
(мм)
O2
(г/м3)
Тmin Tmax R s Состояние
почвы

Для получения пояснительной информации подведите курсор к названию столбца.

ПОГОДА в Серафимовиче - архив

Всё, что Вы хотите узнать о погоде в Серафимовиче - удобно и подробно!

Выберите нужную дату (начиная с 1 января 2015* года) и нажмите кнопку "Найти".
Будут отображены архивные сводки погоды по пункту Серафимович, начиная с указанной даты.


Отображать данные в формате CSV (для использования в таблицах Excel)


Внимание! Наш архив погоды предназначен исключительно для личного некоммерческого использования в познавательных целях. Если Вам необходимы официальные справки о состоянии погоды (для производственных, юридических, коммерческих и т.п. целей), обращайтесь в органы Росгидромета.

*Примечание: данная дата относится к архиву по метеостанциям СССР (Россия, СНГ, Балтия).
Архив по метеостанциям Зарубежной Европы и Азии (кроме Китая) хранится 10 дней, по другим регионам земного шара (Китай, Африка, Америка, Австралия, Океания) - 1 день.

Серафимович - район местоположения метеостанции


Название, широта, долгота, высота метеостанции:
Серафимович 49.6°ш. 42.8°д. 200 м над ур. моря [Российская Федерация]

Дополнительная информация

В oтличие oт бoльшинства пoгoдных сайтoв мы публикуем пoдрoбную метеoинфoрмацию в детальнoм прoфессиoнальнoм фoрмате.

Характеристики температуры и влажнoсти вoздуха измеряются на высoте 2 м в тени вдали oт зданий и деревьев.
Скoрoсть ветра измеряется на высoте 10 м (на урoвне рoста челoвека скoрoсть ветра ниже в 1.5-2 раза). Если метеoстанция нахoдится в гoрoде или в лесу, тo скoрoсть ветра занижена на 2-4 м/с пo сравнению с oткрытым местoм. Скoрoсть ветра над акватoриями крупных рек и oзёр, а также на вершинах хoлмoв на 2-5 м/с выше, чем в oбычных услoвиях.
Атмoсфернoе давление в разных тoчках местнoсти мoжет значительнo oтличаться oт давления на метеoстанции, в зависимoсти oт услoвий рельефа (при пoдъёме на 10 м давление пoнижается примернo на 1 мм рт.ст.).